Terminal Aerodrome Forecast
Issued by NWS

Home | Current Version | Previous Version | Text Only | Print | Product List | Glossary On
Versions: 1 2 3 4 5 6 7 8 9 10 11 12
297
FTUS46 KMTR 022340
TAFSTS
TAF
KSTS 022340Z 0300/0324 34008KT P6SM SCT200
     FM030300 35005KT P6SM FEW200
     FM031300 02007KT P6SM SKC
     FM031800 35005KT P6SM SKC=

USA.gov is the U.S. government's official web portal to all federal, state and local government web resources and services.